Regional Weather Roundup
Issued by NWS Upton, NY

Current Version | Previous Version | Text Only | Print | Product List | Glossary Off
Versions: 1 2 3 4 5 6 7 8 9 10 11 12 13 14 15 16 17 18 19 20 21 22 23 24 25 26 27 28 29 30 31 32 33 34 35 36 37 38 39 40 41 42 43 44 45 46 47 48 49 50
000 ASUS41 KOKX 151705 RWROKX REGIONAL WEATHER ROUNDUP NATIONAL WEATHER SERVICE NEW YORK NY 100 PM EDT MON SEP 15 2014 NOTE: "FAIR" INDICATES FEW OR NO CLOUDS BELOW 12,000 FEET WITH NO SIGNIFICANT WEATHER AND/OR OBSTRUCTIONS TO VISIBILITY. NYZ071-072-176-178-NJZ106-104-151800- NEW YORK CITY METRO AREA CITY SKY/WX TMP DP RH WIND PRES REMARKS CENTRAL PARK SUNNY 70 40 33 VRB5 30.22F LAGUARDIA APRT MOSUNNY 67 43 41 NE6 30.19F KENNEDY INTL MOSUNNY 69 39 33 NW5 30.21F NEWARK/LIBERTY MOSUNNY 69 41 36 VRB5 30.20F BRNX BOT. GARD N/A 66 39 37 SW15 30.21F TETERBORO SUNNY 69 41 36 CALM 30.18F $$ NYZ177-179-078>081-151800- LONG ISLAND NEW YORK CITY SKY/WX TMP DP RH WIND PRES REMARKS FARMINGDALE SUNNY 67 42 40 W7 30.20F ISLIP MOSUNNY 66 41 40 CALM 30.19F SHIRLEY SUNNY 68 41 37 VRB5 30.20F WESTHAMPTON SUNNY 67 42 40 VRB6 30.21F MONTAUK POINT N/A 65 48 54 VRB5 30.20F $$ NYZ052-065-067-151800- HUDSON VALLEY CITY SKY/WX TMP DP RH WIND PRES REMARKS WHITE PLAINS MOSUNNY 67 42 40 N5 30.19F NEWBURGH MOSUNNY 63 46 55 CALM 30.22F MONTGOMERY PTSUNNY 67 45 45 CALM 30.19F POUGHKEEPSIE MOSUNNY 66 41 40 VRB3 30.19F ALBANY MOSUNNY 62 41 46 CALM 30.20F $$ NJZ001-105-106-008-010-013-015-019>022-104-151800- NEW JERSEY CITY SKY/WX TMP DP RH WIND PRES REMARKS NEWARK/LIBERTY MOSUNNY 69 41 36 VRB5 30.20F TETERBORO SUNNY 69 41 36 CALM 30.18F CALDWELL PTSUNNY 67 41 38 VRB3 30.20F MORRISTOWN NOT AVBL SOMERVILLE SUNNY 68 44 42 VRB3 30.19F LINDEN FAIR 72 44 36 CALM 30.22F SUSSEX SUNNY 67 42 40 VRB5 30.21F ANDOVER N/A 65 44 46 VRB6 30.21F TRENTON SUNNY 68 43 40 VRB6 30.20F MILLVILLE SUNNY 69 48 47 E5 30.20F ATLANTIC CITY MOSUNNY 68 48 48 SW3 30.20F WRIGHTSTOWN SUNNY 68 48 48 VRB3 30.18F TOMS RIVER PTSUNNY 66 48 52 N3 30.20F BELMAR PTSUNNY 66 46 48 N8 30.20F $$ PAZ047>061-062-071-151800- EASTERN PENNSYLVANIA CITY SKY/WX TMP DP RH WIND PRES REMARKS PHILADELPHIA MOSUNNY 69 45 41 S6 30.21F ALLENTOWN MOSUNNY 67 43 41 CALM 30.22F SCRANTON SUNNY 64 41 42 NW7 30.20F $$ CTZ002-004>006-009-010-012-RIZ004-006-007-MAZ004-011-015-151800- SOUTHERN NEW ENGLAND IN CT CITY SKY/WX TMP DP RH WIND PRES REMARKS BRADLEY INTL PTSUNNY 63 42 46 N5 30.18F HARTFORD MOSUNNY 65 42 43 SW13 30.18F DANBURY SUNNY 64 40 41 W9G21 30.21F WTRBRY/OXFORD MOSUNNY 63 43 48 N8 30.21F BRIDGEPORT SUNNY 66 46 48 S10 30.20F MERIDEN PTSUNNY 68 41 37 N10 30.18F NEW HAVEN MOSUNNY 68 43 40 VRB5 30.19F CHESTER FAIR 64 39 39 CALM 30.19F GROTON SUNNY 65 47 52 S7 30.17F WILLIMANTIC SUNNY 64 40 41 W9 30.19F IN RI CITY SKY/WX TMP DP RH WIND PRES REMARKS PROVIDENCE MOSUNNY 67 44 43 W8 30.18F BLOCK ISLAND MOSUNNY 64 50 59 N5 30.19F WESTERLY MOSUNNY 67 43 41 VRB3 30.18F IN MA CITY SKY/WX TMP DP RH WIND PRES REMARKS BOSTON PTSUNNY 61 45 55 VRB3 30.18F WORCESTER MOSUNNY 56 39 53 VRB3 30.19F WESTFIELD MOSUNNY 64 41 42 VRB3 30.19F PROVINCETOWN MOSUNNY 63 48 59 N5 30.19F NANTUCKET MOSUNNY 66 49 54 S8 30.18S $$ ANZ330-335-338-340-345-350-353-355-151800- COASTAL MARINE OBSERVATIONS STATION/POSITION TIME SKY/WX TEMP WIND PRES VSBY WAVE AIR SEA DIR/SP/G HT/PER (UTC) (F) (DEG/KT/KT) (MB) (MI) (FT/S) NY HARB ENTRANCE NOT AVBL 4S FIRE IS NOT AVBL 23SW MTP 1700 N/A 2/ 7 HUDSON CANYON 1700 67 74 350/ 2/ 4 1022.0 2/ 7 EXECUTION ROCKS 1700 65 72 130/ 4/ 6 N/A WESTERN LI SOUND 1700 64 180/ 2/ 4 N/A 1 CENTRAL LI SOUND 1700 63 72 210/ 2/ 4 N/A 1 EASTERN LI SOUND 1600 63 69 200/ 2/ 6 N/A ROBBINS REEF 1700 65 CALM 1021.6 $$ >>>>>>>>>>>>>>>>>>>>>>>>>>>> KEY <<<<<<<<<<<<<<<<<<<<<<<<<<< > < > SKY/WX - SKY CONDITION/PRESENT WEATHER < > TMP - TEMPERATURE IN FAHRENHEIT < > DP - DEWPOINT IN FAHRENHEIT < > RH - RELATIVE HUMIDITY IN PERCENT < > WIND - DIRECTION AND SPEED IN MPH < > PRES - MEAN SEA LEVEL PRESSURE IN INCHES OF HG < > WCI - WIND CHILL INDEX < > VSB - VISIBILITY IN MILES < > HX - HEAT INDEX < > TC - TEMPERATURE IN CELSIUS < > VRB - VARIABLE WIND DIRECTION < > < >>>>>>>>>>>>>>>>>>>>>>>>>>>> KEY <<<<<<<<<<<<<<<<<<<<<<<<<<<

USA.gov is the U.S. government's official web portal to all federal, state and local government web resources and services.